SCP
0 0 0 0 0 0 0 0 0 0 0 0 0 0 0 0 0 0 0 0 -0 0 0 0 0 0 1 2 3 3 2 1 0 0 0 0 0 0 0 0 0 0 0 0
0 0 0 0 0 0 0 0 0 0 0 0 0 0 0 0 0 0 0 0 0 0 0 0 0 1 1 3 3 3 2 1 1 0 0 0 0 0 0 0 0 0 0 0
0 0 0 0 0 0 0 0 0 0 0 0 0 0 0 0 0 0 0 0 0 0 0 0 0 1 1 2 3 2 2 3 1 0 0 0 0 0 0 0 0 0 0 0
0 0 0 0 0 0 0 0 0 0 0 0 0 0 0 0 0 0 0 0 0 0 0 0 1 1 1 3 3 3 3 2 2 1 0 0 0 0 0 0 0 0 0 0
0 0 0 0 0 0 0 0 0 0 0 0 0 0 0 0 0 0 0 0 0 0 0 0 1 2 2 2 3 2 2 1 1 0 0 0 0 0 0 0 0 0 0 0
0 0 0 0 0 0 0 0 0 0 0 0 0 0 0 0 0 0 0 0 0 0 0 0 0 2 2 2 2 1 1 1 1 0 0 0 0 0 0 0 0 0 0 0
0 0 0 0 0 0 0 0 0 0 0 0 0 0 0 0 0 0 0 0 0 0 0 0 1 1 1 1 1 1 1 1 0 0 0 0 0 0 0 -0 0 0 0 0
0 0 0 0 0 0 0 0 0 0 0 0 0 0 0 0 0 0 0 0 0 0 1 1 1 1 1 1 1 1 1 0 0 0 0 0 0 0 0 0 -0 0 0 0
0 0 0 0 0 0 0 0 0 0 0 0 0 0 0 0 0 1 1 1 0 0 -0 1 1 1 0 0 1 1 0 0 0 0 0 -0 0 0 0 0 0 0 0 0
0 0 0 0 0 0 0 0 0 0 0 0 0 2 1 2 1 1 0 0 0 1 1 1 1 1 0 0 0 0 0 0 0 0 0 0 0 0 0 0 0 0 0 0
0 0 0 0 0 0 0 0 0 0 0 0 0 0 1 0 0 -0 -0 -0 0 0 0 0 0 0 0 0 0 0 0 0 0 0 0 0 0 0 0 0 0 0 0 0
0 0 0 0 0 0 0 0 0 0 0 0 0 0 0 0 1 0 0 0 0 0 0 0 0 0 0 0 0 0 0 0 0 0 0 0 0 0 0 0 0 0 0 0
0 0 0 0 0 0 0 0 0 0 0 0 0 0 0 0 0 0 0 0 0 0 0 0 0 0 0 0 0 0 0 0 0 0 0 0 0 0 0 0 0 0 0 0
0 0 0 0 0 0 0 0 0 0 0 0 0 0 0 0 0 0 0 0 0 0 0 0 0 0 0 0 0 0 0 0 0 0 0 0 0 0 0 0 0 0 0 0
0 0 0 0 0 0 0 0 0 0 0 0 0 0 0 0 0 0 0 0 0 0 0 0 0 0 0 0 0 0 0 0 0 0 0 0 0 0 0 0 0 0 0 0
0 0 0 0 0 0 0 0 0 0 0 0 0 0 0 0 0 0 0 0 0 0 0 0 0 0 0 0 0 0 0 0 0 0 0 0 0 0 0 0 0 0 0 0
0 0 0 0 0 0 0 0 0 0 0 0 0 0 0 0 0 0 0 0 0 0 0 0 0 0 0 0 0 0 0 0 0 0 0 0 0 0 0 0 0 0 0 0
0 0 0 0 0 0 0 0 0 0 0 0 0 0 0 0 0 0 0 0 0 0 0 0 0 0 0 0 0 0 0 0 0 0 0 0 0 0 0 0 0 0 0 0
0 0 0 0 0 0 0 0 0 0 0 0 0 0 0 0 0 0 0 0 0 0 0 0 0 0 0 0 0 0 0 0 0 0 0 0 0 0 0 0 0 0 0 0
0 0 0 0 0 0 0 0 0 0 0 0 0 0 0 0 0 0 0 0 0 0 0 0 0 0 0 0 0 0 0 0 0 0 0 0 0 0 0 0 0 0 0 0
0 0 0 0 0 0 0 0 0 0 0 0 0 0 0 0 0 0 0 0 0 0 0 0 0 0 0 0 0 0 0 0 0 0 0 0 0 0 0 0 0 0 0 0
0 0 0 0 0 0 0 0 0 0 0 0 -0 -0 0 0 0 0 0 0 0 0 0 0 0 0 0 0 0 0 0 0 0 0 0 0 0 0 0 0 0 0 0 0
0 0 0 0 0 0 0 0 0 0 0 0 0 -0 -0 -0 0 0 0 0 0 0 0 0 0 0 0 0 0 0 0 0 0 0 0 0 0 0 0 0 0 0 0 0
0 0 0 0 0 0 0 0 0 0 0 0 0 0 0 0 0 0 0 0 0 0 0 0 0 0 0 0 0 0 0 0 0 0 0 0 0 0 0 0 0 0 0 0
0 0 0 0 0 0 0 0 0 0 0 0 0 0 0 0 0 0 0 0 0 0 0 0 0 0 0 0 0 0 0 0 0 0 0 0 0 0 0 0 0 0 0 0
0 0 0 0 0 0 0 0 0 0 0 0 0 0 0 0 0 0 0 0 0 0 0 0 0 0 0 0 0 0 0 0 0 0 0 0 0 0 0 0 0 0 0 0
0 -0 -0 0 0 0 0 -0 -0 0 0 0 0 0 0 0 0 0 0 0 0 0 0 0 0 0 0 0 0 0 0 0 0 0 0 0 0 0 0 0 0 0 0 0
Wind_Speed_500mb
41 30 13 12 11 15 15 18 18 16 20 19 24 26 39 68 65 70 75 79 86 96 100 105 104 103 104 107 112 112 107 99 93 87 77 63 51 34 35 37 37 36 31 26
15 24 27 21 29 25 28 13 8 15 14 17 40 15 17 56 64 69 69 74 76 75 81 87 96 100 100 98 105 112 113 106 95 82 75 68 55 39 38 41 44 44 40 29
33 11 14 10 17 32 13 1 14 12 21 13 9 16 39 62 75 81 77 72 68 66 66 68 75 84 90 91 94 103 107 108 92 86 85 71 56 50 38 40 46 50 44 34
25 11 14 10 8 26 21 9 5 7 10 14 23 76 78 73 90 82 68 55 47 41 34 38 47 67 77 82 90 94 99 100 95 64 81 61 58 49 41 45 49 49 47 39
11 11 5 7 7 7 16 9 6 2 10 4 13 24 3 50 57 58 52 43 33 22 12 18 29 37 55 72 80 86 92 94 80 75 65 64 61 45 41 49 49 51 44 41
6 15 11 5 12 33 21 3 13 11 11 8 7 15 5 23 39 39 32 30 25 11 17 20 24 30 50 67 77 81 86 82 69 69 59 63 51 38 44 48 50 55 43 42
6 9 5 9 28 22 15 10 19 24 29 46 17 14 36 16 22 22 24 24 14 12 17 21 23 26 45 56 62 68 73 70 49 49 59 70 67 66 55 49 60 57 33 41
4 8 5 39 10 11 7 20 24 48 52 57 49 50 48 44 34 24 18 18 19 25 33 35 35 39 47 49 47 52 57 62 57 60 54 50 54 55 50 32 83 33 33 47
4 7 8 19 36 43 47 61 61 72 60 60 62 55 47 44 40 35 28 23 24 40 52 57 57 54 48 44 40 41 50 56 59 47 28 27 20 25 35 85 49 38 36 45
7 9 13 27 49 54 55 58 51 46 42 41 40 37 40 35 41 40 37 39 45 52 60 54 58 51 44 35 32 37 41 51 54 46 27 24 27 42 24 26 29 36 37 34
12 7 11 48 48 52 51 44 38 34 32 32 20 15 24 35 56 62 50 47 40 39 45 36 42 40 34 38 41 30 22 17 10 13 3 16 30 48 39 25 31 31 30 33
10 20 43 18 39 44 57 47 45 34 40 44 40 42 19 11 19 24 17 24 30 23 23 28 36 38 38 31 35 33 42 46 18 26 48 53 50 44 30 40 36 31 26 24
24 63 63 55 53 59 58 50 43 41 34 31 35 28 28 29 33 22 26 15 21 21 13 36 35 21 23 28 29 47 37 38 32 33 38 40 47 36 38 40 27 22 23 27
53 48 45 30 33 38 40 31 21 19 24 31 32 26 24 18 18 21 28 25 17 31 28 24 18 20 26 38 33 35 25 21 27 32 35 45 44 36 38 19 17 22 26 24
57 49 40 34 27 26 24 20 20 20 24 25 27 30 31 29 22 20 28 26 29 35 31 21 23 27 30 30 22 13 16 19 20 19 19 23 27 22 15 21 22 25 27 21
42 36 30 29 27 27 30 30 32 34 35 35 39 39 40 36 30 23 23 30 31 44 37 36 32 29 29 29 25 26 23 19 16 14 12 14 17 19 25 27 22 22 19 13
25 37 30 27 26 26 26 28 31 36 38 35 36 42 44 41 34 30 20 25 25 40 37 30 28 27 30 32 31 27 22 17 14 13 13 17 21 21 19 19 19 20 20 15
25 20 17 17 21 24 22 20 25 31 34 34 36 42 45 41 33 25 17 17 29 36 34 34 25 29 32 32 35 31 20 15 20 23 24 23 20 18 17 19 24 25 23 20
16 13 13 13 13 15 20 23 26 25 20 28 38 40 33 29 24 17 13 17 29 34 35 36 29 27 25 24 18 13 16 19 21 23 19 18 20 20 20 23 26 24 21 19
9 6 7 8 13 18 18 12 9 10 19 25 25 27 26 26 22 8 4 16 14 15 13 14 20 24 18 15 15 17 17 19 17 15 16 18 22 20 20 24 23 18 21 21
26 22 19 21 23 18 17 10 12 14 17 15 15 17 20 20 13 7 10 10 13 12 19 14 17 17 16 16 14 11 11 13 8 4 5 6 12 17 18 19 18 15 16 19
19 18 22 25 27 24 20 13 13 10 11 11 7 7 5 4 5 1 2 7 6 6 7 7 7 8 7 9 9 11 15 10 9 11 13 12 14 15 14 16 15 15 18 22
15 18 22 26 32 33 25 19 15 14 11 11 12 11 9 9 9 6 4 5 3 7 10 5 5 5 5 8 8 9 12 15 19 22 27 30 29 23 22 22 22 21 26 27
21 23 24 23 24 23 28 22 20 9 7 9 10 11 13 12 8 6 7 8 9 5 7 4 5 8 11 9 8 12 14 19 25 19 15 17 24 26 27 29 30 30 28 25
28 23 16 23 29 18 18 24 21 17 12 8 9 11 17 15 10 5 4 1 5 7 7 12 13 14 13 12 15 17 21 20 18 21 23 22 21 20 22 29 34 34 32 28
32 28 25 28 26 20 12 14 16 19 13 10 11 10 11 15 10 5 7 9 11 14 15 16 16 18 20 21 23 27 26 29 26 29 29 23 23 23 27 24 30 37 34 31
22 22 28 21 20 14 17 15 17 19 12 13 18 17 18 19 20 20 21 17 18 17 19 22 24 25 26 26 25 28 31 28 28 25 28 30 31 29 26 24 20 26 33 30
Wind_Direction_500mb
225 215 189 218 208 203 172 177 171 211 191 212 205 200 205 207 208 207 211 217 221 226 230 233 235 235 236 236 235 235 233 227 225 225 229 224 220 225 232 230 227 235 240 241
228 210 197 230 246 210 228 160 125 141 217 216 211 184 159 202 202 207 207 215 218 223 229 233 238 241 242 241 240 239 236 230 221 225 226 223 218 221 225 225 229 234 240 241
224 181 170 219 222 195 157 59 143 148 219 167 164 196 201 211 210 210 209 212 216 220 227 236 245 246 244 245 241 242 243 228 216 228 229 221 216 225 225 229 233 237 241 244
209 114 202 236 308 142 114 114 84 319 260 182 201 205 212 208 200 202 204 209 213 219 226 246 255 253 252 248 245 246 244 231 219 228 223 219 218 225 231 237 241 243 246 249
148 166 182 357 360 288 137 343 23 5 314 319 217 159 163 208 201 192 182 181 189 188 222 266 266 265 260 252 246 247 242 229 225 227 221 214 216 224 234 248 256 252 251 248
158 140 183 217 328 348 297 60 20 59 57 81 90 163 282 174 176 177 178 175 168 181 243 259 276 277 262 254 250 250 248 238 230 218 217 214 217 228 243 253 266 259 259 265
348 104 172 11 326 320 74 236 26 101 103 87 83 106 68 129 160 162 158 170 189 285 272 289 287 296 278 259 256 259 249 241 231 232 222 223 226 237 250 261 261 253 257 275
358 73 55 350 357 96 205 84 91 82 84 87 82 66 58 63 75 66 28 4 352 318 286 271 286 277 265 260 258 252 245 234 221 221 223 224 232 242 243 236 299 261 273 274
202 178 279 342 70 95 96 89 79 76 71 67 62 52 41 25 18 17 10 353 313 305 314 294 264 256 253 252 249 238 228 223 217 211 221 246 268 270 295 258 239 265 264 278
71 345 309 58 81 81 80 74 65 59 62 61 60 45 17 11 354 353 341 319 327 319 300 300 272 241 237 231 222 222 212 211 214 222 230 245 268 273 260 259 248 261 263 253
101 168 96 56 74 81 81 79 72 57 39 38 6 342 319 313 309 298 302 316 310 308 302 272 237 221 206 192 185 168 192 192 170 139 123 279 251 273 265 249 259 262 261 261
182 140 106 51 69 82 78 79 81 71 58 58 60 56 50 353 299 295 298 293 317 331 321 226 193 182 167 174 177 165 158 146 170 240 259 271 242 239 247 251 256 255 260 262
128 101 96 94 90 85 86 72 64 73 65 53 50 39 21 21 21 347 313 288 293 309 202 182 181 188 192 184 178 177 203 251 253 247 247 240 235 248 258 257 256 261 271 279
113 107 80 96 81 78 80 81 68 56 37 35 36 29 24 1 347 3 355 297 239 186 190 204 216 207 195 184 201 227 250 240 236 230 239 242 239 247 255 247 290 287 284 284
92 97 101 95 77 56 47 25 2 353 337 338 346 355 1 8 3 335 332 318 255 218 207 202 211 213 210 209 208 213 199 211 225 229 221 223 240 237 244 263 273 286 284 274
86 76 62 52 30 11 1 346 340 332 327 326 321 319 323 331 339 334 322 319 241 212 209 200 211 210 208 196 195 205 208 211 220 227 225 226 246 259 270 268 265 276 261 246
59 40 35 29 11 356 339 328 321 315 318 321 322 317 315 318 313 314 312 312 249 214 215 203 194 205 206 208 203 204 207 227 257 265 270 272 257 255 259 260 277 257 246 226
47 37 15 358 345 336 324 307 308 308 308 311 313 316 315 316 306 304 304 292 230 214 205 190 206 219 222 218 228 233 227 249 259 259 265 252 246 246 260 259 244 218 221 219
25 10 356 343 340 326 314 309 303 292 299 306 307 314 314 304 303 313 283 243 209 212 221 234 247 218 212 212 222 244 273 276 271 269 251 245 242 245 248 238 224 220 228 238
34 16 17 14 347 345 345 337 316 293 301 307 307 331 320 313 319 313 228 219 243 253 239 220 214 217 211 234 255 265 266 277 267 244 235 241 241 229 228 231 221 251 250 250
57 65 48 28 14 7 340 328 330 338 339 339 345 339 334 330 322 304 269 263 242 205 210 213 211 224 241 258 267 266 266 260 255 218 186 203 219 225 223 232 245 237 243 260
33 27 17 13 9 8 4 349 338 346 18 21 7 39 30 335 319 245 135 112 130 153 160 178 196 215 244 246 247 265 259 260 253 236 243 240 232 229 241 247 261 260 258 270
21 10 10 7 7 8 0 358 5 20 35 27 39 54 40 21 21 4 16 302 251 145 142 126 162 176 216 224 215 201 211 255 287 298 279 260 244 252 256 255 258 254 264 268
340 343 351 359 3 357 9 15 15 12 22 29 25 24 20 2 335 306 288 268 238 215 190 151 138 209 231 236 257 259 274 302 301 292 280 254 243 248 248 249 249 257 266 255
346 348 341 341 338 346 348 355 8 18 18 6 351 10 8 353 342 338 319 270 238 244 252 240 239 238 240 259 270 258 277 312 292 262 271 283 277 278 267 251 249 251 255 259
340 334 331 348 359 349 335 343 346 330 315 326 340 325 333 354 344 295 321 319 277 272 273 260 265 271 269 267 270 267 277 282 289 273 251 255 269 277 291 290 268 252 248 256
346 320 322 327 323 330 340 353 358 351 312 303 315 311 306 310 312 291 274 281 285 278 281 259 268 269 269 270 274 270 270 279 280 275 254 262 269 272 278 284 299 271 259 251
Wind_Speed_850mb
41 30 13 12 11 15 15 18 18 16 20 19 24 26 39 68 65 70 75 79 86 96 100 105 104 103 104 107 112 112 107 99 93 87 77 63 51 34 35 37 37 36 31 26
15 24 27 21 29 25 28 13 8 15 14 17 40 15 17 56 64 69 69 74 76 75 81 87 96 100 100 98 105 112 113 106 95 82 75 68 55 39 38 41 44 44 40 29
33 11 14 10 17 32 13 1 14 12 21 13 9 16 39 62 75 81 77 72 68 66 66 68 75 84 90 91 94 103 107 108 92 86 85 71 56 50 38 40 46 50 44 34
25 11 14 10 8 26 21 9 5 7 10 14 23 76 78 73 90 82 68 55 47 41 34 38 47 67 77 82 90 94 99 100 95 64 81 61 58 49 41 45 49 49 47 39
11 11 5 7 7 7 16 9 6 2 10 4 13 24 3 50 57 58 52 43 33 22 12 18 29 37 55 72 80 86 92 94 80 75 65 64 61 45 41 49 49 51 44 41
6 15 11 5 12 33 21 3 13 11 11 8 7 15 5 23 39 39 32 30 25 11 17 20 24 30 50 67 77 81 86 82 69 69 59 63 51 38 44 48 50 55 43 42
6 9 5 9 28 22 15 10 19 24 29 46 17 14 36 16 22 22 24 24 14 12 17 21 23 26 45 56 62 68 73 70 49 49 59 70 67 66 55 49 60 57 33 41
4 8 5 39 10 11 7 20 24 48 52 57 49 50 48 44 34 24 18 18 19 25 33 35 35 39 47 49 47 52 57 62 57 60 54 50 54 55 50 32 83 33 33 47
4 7 8 19 36 43 47 61 61 72 60 60 62 55 47 44 40 35 28 23 24 40 52 57 57 54 48 44 40 41 50 56 59 47 28 27 20 25 35 85 49 38 36 45
7 9 13 27 49 54 55 58 51 46 42 41 40 37 40 35 41 40 37 39 45 52 60 54 58 51 44 35 32 37 41 51 54 46 27 24 27 42 24 26 29 36 37 34
12 7 11 48 48 52 51 44 38 34 32 32 20 15 24 35 56 62 50 47 40 39 45 36 42 40 34 38 41 30 22 17 10 13 3 16 30 48 39 25 31 31 30 33
10 20 43 18 39 44 57 47 45 34 40 44 40 42 19 11 19 24 17 24 30 23 23 28 36 38 38 31 35 33 42 46 18 26 48 53 50 44 30 40 36 31 26 24
24 63 63 55 53 59 58 50 43 41 34 31 35 28 28 29 33 22 26 15 21 21 13 36 35 21 23 28 29 47 37 38 32 33 38 40 47 36 38 40 27 22 23 27
53 48 45 30 33 38 40 31 21 19 24 31 32 26 24 18 18 21 28 25 17 31 28 24 18 20 26 38 33 35 25 21 27 32 35 45 44 36 38 19 17 22 26 24
57 49 40 34 27 26 24 20 20 20 24 25 27 30 31 29 22 20 28 26 29 35 31 21 23 27 30 30 22 13 16 19 20 19 19 23 27 22 15 21 22 25 27 21
42 36 30 29 27 27 30 30 32 34 35 35 39 39 40 36 30 23 23 30 31 44 37 36 32 29 29 29 25 26 23 19 16 14 12 14 17 19 25 27 22 22 19 13
25 37 30 27 26 26 26 28 31 36 38 35 36 42 44 41 34 30 20 25 25 40 37 30 28 27 30 32 31 27 22 17 14 13 13 17 21 21 19 19 19 20 20 15
25 20 17 17 21 24 22 20 25 31 34 34 36 42 45 41 33 25 17 17 29 36 34 34 25 29 32 32 35 31 20 15 20 23 24 23 20 18 17 19 24 25 23 20
16 13 13 13 13 15 20 23 26 25 20 28 38 40 33 29 24 17 13 17 29 34 35 36 29 27 25 24 18 13 16 19 21 23 19 18 20 20 20 23 26 24 21 19
9 6 7 8 13 18 18 12 9 10 19 25 25 27 26 26 22 8 4 16 14 15 13 14 20 24 18 15 15 17 17 19 17 15 16 18 22 20 20 24 23 18 21 21
26 22 19 21 23 18 17 10 12 14 17 15 15 17 20 20 13 7 10 10 13 12 19 14 17 17 16 16 14 11 11 13 8 4 5 6 12 17 18 19 18 15 16 19
19 18 22 25 27 24 20 13 13 10 11 11 7 7 5 4 5 1 2 7 6 6 7 7 7 8 7 9 9 11 15 10 9 11 13 12 14 15 14 16 15 15 18 22
15 18 22 26 32 33 25 19 15 14 11 11 12 11 9 9 9 6 4 5 3 7 10 5 5 5 5 8 8 9 12 15 19 22 27 30 29 23 22 22 22 21 26 27
21 23 24 23 24 23 28 22 20 9 7 9 10 11 13 12 8 6 7 8 9 5 7 4 5 8 11 9 8 12 14 19 25 19 15 17 24 26 27 29 30 30 28 25
28 23 16 23 29 18 18 24 21 17 12 8 9 11 17 15 10 5 4 1 5 7 7 12 13 14 13 12 15 17 21 20 18 21 23 22 21 20 22 29 34 34 32 28
32 28 25 28 26 20 12 14 16 19 13 10 11 10 11 15 10 5 7 9 11 14 15 16 16 18 20 21 23 27 26 29 26 29 29 23 23 23 27 24 30 37 34 31
22 22 28 21 20 14 17 15 17 19 12 13 18 17 18 19 20 20 21 17 18 17 19 22 24 25 26 26 25 28 31 28 28 25 28 30 31 29 26 24 20 26 33 30
Wind_Direction_850mb
225 215 189 218 208 203 172 177 171 211 191 212 205 200 205 207 208 207 211 217 221 226 230 233 235 235 236 236 235 235 233 227 225 225 229 224 220 225 232 230 227 235 240 241
228 210 197 230 246 210 228 160 125 141 217 216 211 184 159 202 202 207 207 215 218 223 229 233 238 241 242 241 240 239 236 230 221 225 226 223 218 221 225 225 229 234 240 241
224 181 170 219 222 195 157 59 143 148 219 167 164 196 201 211 210 210 209 212 216 220 227 236 245 246 244 245 241 242 243 228 216 228 229 221 216 225 225 229 233 237 241 244
209 114 202 236 308 142 114 114 84 319 260 182 201 205 212 208 200 202 204 209 213 219 226 246 255 253 252 248 245 246 244 231 219 228 223 219 218 225 231 237 241 243 246 249
148 166 182 357 360 288 137 343 23 5 314 319 217 159 163 208 201 192 182 181 189 188 222 266 266 265 260 252 246 247 242 229 225 227 221 214 216 224 234 248 256 252 251 248
158 140 183 217 328 348 297 60 20 59 57 81 90 163 282 174 176 177 178 175 168 181 243 259 276 277 262 254 250 250 248 238 230 218 217 214 217 228 243 253 266 259 259 265
348 104 172 11 326 320 74 236 26 101 103 87 83 106 68 129 160 162 158 170 189 285 272 289 287 296 278 259 256 259 249 241 231 232 222 223 226 237 250 261 261 253 257 275
358 73 55 350 357 96 205 84 91 82 84 87 82 66 58 63 75 66 28 4 352 318 286 271 286 277 265 260 258 252 245 234 221 221 223 224 232 242 243 236 299 261 273 274
202 178 279 342 70 95 96 89 79 76 71 67 62 52 41 25 18 17 10 353 313 305 314 294 264 256 253 252 249 238 228 223 217 211 221 246 268 270 295 258 239 265 264 278
71 345 309 58 81 81 80 74 65 59 62 61 60 45 17 11 354 353 341 319 327 319 300 300 272 241 237 231 222 222 212 211 214 222 230 245 268 273 260 259 248 261 263 253
101 168 96 56 74 81 81 79 72 57 39 38 6 342 319 313 309 298 302 316 310 308 302 272 237 221 206 192 185 168 192 192 170 139 123 279 251 273 265 249 259 262 261 261
182 140 106 51 69 82 78 79 81 71 58 58 60 56 50 353 299 295 298 293 317 331 321 226 193 182 167 174 177 165 158 146 170 240 259 271 242 239 247 251 256 255 260 262
128 101 96 94 90 85 86 72 64 73 65 53 50 39 21 21 21 347 313 288 293 309 202 182 181 188 192 184 178 177 203 251 253 247 247 240 235 248 258 257 256 261 271 279
113 107 80 96 81 78 80 81 68 56 37 35 36 29 24 1 347 3 355 297 239 186 190 204 216 207 195 184 201 227 250 240 236 230 239 242 239 247 255 247 290 287 284 284
92 97 101 95 77 56 47 25 2 353 337 338 346 355 1 8 3 335 332 318 255 218 207 202 211 213 210 209 208 213 199 211 225 229 221 223 240 237 244 263 273 286 284 274
86 76 62 52 30 11 1 346 340 332 327 326 321 319 323 331 339 334 322 319 241 212 209 200 211 210 208 196 195 205 208 211 220 227 225 226 246 259 270 268 265 276 261 246
59 40 35 29 11 356 339 328 321 315 318 321 322 317 315 318 313 314 312 312 249 214 215 203 194 205 206 208 203 204 207 227 257 265 270 272 257 255 259 260 277 257 246 226
47 37 15 358 345 336 324 307 308 308 308 311 313 316 315 316 306 304 304 292 230 214 205 190 206 219 222 218 228 233 227 249 259 259 265 252 246 246 260 259 244 218 221 219
25 10 356 343 340 326 314 309 303 292 299 306 307 314 314 304 303 313 283 243 209 212 221 234 247 218 212 212 222 244 273 276 271 269 251 245 242 245 248 238 224 220 228 238
34 16 17 14 347 345 345 337 316 293 301 307 307 331 320 313 319 313 228 219 243 253 239 220 214 217 211 234 255 265 266 277 267 244 235 241 241 229 228 231 221 251 250 250
57 65 48 28 14 7 340 328 330 338 339 339 345 339 334 330 322 304 269 263 242 205 210 213 211 224 241 258 267 266 266 260 255 218 186 203 219 225 223 232 245 237 243 260
33 27 17 13 9 8 4 349 338 346 18 21 7 39 30 335 319 245 135 112 130 153 160 178 196 215 244 246 247 265 259 260 253 236 243 240 232 229 241 247 261 260 258 270
21 10 10 7 7 8 0 358 5 20 35 27 39 54 40 21 21 4 16 302 251 145 142 126 162 176 216 224 215 201 211 255 287 298 279 260 244 252 256 255 258 254 264 268
340 343 351 359 3 357 9 15 15 12 22 29 25 24 20 2 335 306 288 268 238 215 190 151 138 209 231 236 257 259 274 302 301 292 280 254 243 248 248 249 249 257 266 255
346 348 341 341 338 346 348 355 8 18 18 6 351 10 8 353 342 338 319 270 238 244 252 240 239 238 240 259 270 258 277 312 292 262 271 283 277 278 267 251 249 251 255 259
340 334 331 348 359 349 335 343 346 330 315 326 340 325 333 354 344 295 321 319 277 272 273 260 265 271 269 267 270 267 277 282 289 273 251 255 269 277 291 290 268 252 248 256
346 320 322 327 323 330 340 353 358 351 312 303 315 311 306 310 312 291 274 281 285 278 281 259 268 269 269 270 274 270 270 279 280 275 254 262 269 272 278 284 299 271 259 251